User: anonymous   Login
Location: Unspecified
(0.0000°N, 0.0000°E)
Time: 04:00:22
(UTC+00:00)
Language:

AO-85 - Orbit

View from above orbital plane
View from above orbital plane
View from above satellite
View from above satellite

Ground track
Ground track

The orbit data is extracted from the following two-line orbital elements,

1 40967U 15058D   19080.35338418  .00000155  00000-0  34158-4 0 06328
2 40967 064.7753 069.6722 0208861 230.5020 127.7448 14.75899544094551
Epoch (UTC): 21 March 2019 08:28:52
Eccentricity: 0.0208861
inclination: 64.7753°
perigee height: 495 km
apogee height: 789 km
right ascension of ascending node: 69.6722°
argument of perigee: 230.5020°
revolutions per day: 14.75899544
mean anomaly at epoch: 127.7448°
orbit number at epoch: 9455

The dashed part of the orbit path shows where the satellite is in the earth's shadow,  

DLR